sat.trackr.live / text

‹ back to catalog

STARLINK-4201

NORAD 52856 · 2022-062AC

PAYLOAD ACTIVE UNKNOWN

§ Identity

Operator
Country
US
Launch date
2022-06-17
Launch site
AFETR
Launch vehicle
Mass (kg)
RCS (m²)

Purposes: comms

External: N2YO · Heavens-Above · Gunter

§ Orbital elements

Epoch: 2026-09-19T13:10:31.823616Z

Period
93.90 min
Inclination
53.1602°
Eccentricity
0.0001145
Mean motion
15.33539843 rev/d
Perigee alt
464.5 km
Apogee alt
466.0 km
Semi-major
6,843.4 km
B*
-2.9921e-5
RAAN
222.3865°
Arg perigee
81.3697°
Mean anomaly
278.7435°
Rev number
23,534

§ Raw data

STARLINK-42011 52856U 22062AC  26262.54897944 -.00001356  00000+0 -29921-4 0  99992 52856  53.1602 222.3865 0001145  81.3697 278.7435 15.33539843235345

JSON: /api/v1/satellites/52856 · /tle

For live sub-satellite position, see the globe view (requires WebGL).

§ Visibility from observer

Set your observer location to see the next 7 days of passes ≥ 10°. The values pass through the URL so the page stays shareable.

No JS? Fill the form by hand. The geolocation button needs JavaScript.